Weather Roundup
Issued by NWS

Home | Current Version | Previous Version | Graphics & Text | Print | Product List | Glossary Off
Versions: 1 2 3 4 5 6 7 8 9 10 11 12 13 14 15 16 17 18 19 20 21 22 23 24 25 26 27 28 29 30 31 32 33 34 35 36 37 38 39 40 41 42 43 44 45 46 47 48 49 50

924
NZUS93 KARX 240610
HRRWXR

CURRENT HOURLY OBSERVATIONS ACROSS
MUCH OF THE UPPER MISSISSIPPI VALLEY
NATIONAL WEATHER SERVICE LA CROSSE WI
1200 AM CST FRI FEB 24 2017


...SOUTHEAST MINNESOTA...


CITY           SKY/WX    TMP DP  RH WIND       PRES   REMARKS
ROCHESTER      HVY SNOW  29  29 100 NE22G32   29.77F VSB 1/4 WCI  15
ROCHESTER/MAYO CLOUDY    31  31 100 N16G22    29.80S VSB 1/2 WCI  20
WINONA         LGT SNOW  34  32  93 NE9       29.83R WCI  26
AUSTIN         CLOUDY    30  28  93 NE16      29.74F WCI  19
ALBERT LEA     HVY SNOW  30  30 100 N21       29.75F VSB 1/4 WCI  17
DODGE CENTER   LGT SNOW  28  28 100 NE17      29.80R VSB 3/4 WCI  16
PRESTON        CLOUDY    31  30  96 NE17      29.75F VSB 1   WCI  20
OWATONNA       CLOUDY    28  27  93 N17G24    29.81F WCI  16
FARIBAULT      LGT SNOW  28  27  93 N14G20    29.85F WCI  17
$$

...ELSEWHERE IN MINNESOTA...


CITY           SKY/WX    TMP DP  RH WIND       PRES   REMARKS
MINNEAPOLIS    CLOUDY    29  21  72 N16       29.89F WCI  17
INTNL FALLS    CLEAR     12   6  77 NW6       30.07R WCI   3
DULUTH         CLOUDY    21  15  78 N9        29.97R WCI  11
RED WING       LGT SNOW  30  27  86 NE6       29.87R WCI  24
REDWOOD FALLS  CLOUDY    29  19  66 NE15G25   29.87F WCI  18
MANKATO        LGT SNOW  28  26  92 NE20      29.82F FOG     WCI  15
WORTHINGTON    LGT SNOW  26  25  96 N21G30    29.79S VSB 1   WCI  12
FAIRMONT       LGT SNOW  27  26  96 N20G26    29.76F VSB 3/4 WCI  13
$$

...SOUTHWEST WISCONSIN...


CITY           SKY/WX    TMP DP  RH WIND       PRES   REMARKS
LA CROSSE      LGT SNOW  35  32  88 N12       29.77F FOG     WCI  27
PRAIRIE DU CHI MIX PCPN  33  32  96 NE12G24   29.68F WCI  25
BOSCOBEL       LGT RAIN  35  32  88 NE13G23   29.69R FOG     WCI  26
LONE ROCK      LGT RAIN  34  30  85 E25G32    29.67F WCI  21
PLATTEVILLE    CLOUDY    34  34 100 NE25G33   29.63F WCI  21
FORT MC COY    LGT SNOW  34  31  89 NE9G23    29.78F WCI  27
CAMP DOUGLAS   LGT SNOW  32  32 100 NE8G17    29.74F FOG     WCI  25
MAUSTON-NEW LI LGT SNOW  32  32  99 E8G17     29.73F VSB 3/4 WCI  25
VIROQUA        CLOUDY    33  32  98 NE17      29.70R WCI  22
WIS DELLS      LGT SNOW  32  31  96 NE17      29.74F WCI  20
$$

...ELSEWHERE IN WISCONSIN...


CITY           SKY/WX    TMP DP  RH WIND       PRES   REMARKS
MILWAUKEE      LGT RAIN  35  32  88 NE21G29   29.75F FOG     WCI  24
MADISON        LGT RAIN  33  31  92 NE20G26   29.73F WCI  21
GREEN BAY      FLURRIES  34  30  85 NE17      29.84F WCI  23
EAU CLAIRE     LGT SNOW  31  25  78 NE13      29.85F WCI  21
BLACK RVR FLS  CLOUDY    33  33 100 NE10      29.80S VSB 1   WCI  25
MEDFORD        LGT SNOW  28  25  88 NE10G20   29.82F WCI  19
WAUSAU         FLURRIES  33  26  75 NE12      29.81F WCI  24
WIS RAPIDS     LGT SNOW  34  28  79 E14G25    29.80F WCI  25
MARSHFIELD     LGT SNOW  31  29  92 NE8       29.83R VSB 3/4 WCI  23
RICE LAKE      CLOUDY    29  23  78 N15       29.89F WCI  18
$$

...NORTHEAST IOWA...


CITY           SKY/WX    TMP DP  RH WIND       PRES   REMARKS
WATERLOO       TSTM      35  32  88 NE24G31   29.61F FOG     WCI  23
DUBUQUE        CLOUDY    34  33  96 NE23G31   29.59F WCI  22
DECORAH        MIX PCPN  32  32 100 NE9G15    29.70F WCI  24
MASON CITY     LGT SNOW  32  32 100 NE32G41   29.68F VSB 3/4 WCI  17
CHARLES CITY   LGT RAIN  34  34 100 NE23G29   29.67F WCI  22
OELWEIN        MIX PCPN  34  34 100 NE25G33   29.61F WCI  21
$$

...ELSEWHERE IN IOWA...


CITY           SKY/WX    TMP DP  RH WIND       PRES   REMARKS
DES MOINES     LGT RAIN  41  39  93 NE18G31   29.47F FOG
IOWA CITY      CLOUDY    39  35  86 E17G28    29.55F WCI  30
FORT DODGE     CLOUDY    32  28  86 NE25G38   29.59F WCI  19
MARSHALLTOWN   CLOUDY    36  35  96 NE23G32   29.54F FOG     WCI  24
CEDAR RAPIDS   CLOUDY    37  37 100 NE16G29   29.53F WCI  28
$$

...NORTHERN ILLINOIS...


CITY           SKY/WX    TMP DP  RH WIND       PRES   REMARKS
CHICAGO-OHARE  CLOUDY    40  37  89 NE17G24   29.66F WCI  31
CHICAGO-MIDWAY CLOUDY    41  38  89 NE15G23   29.64F
MOLINE         CLOUDY    41  36  82 E17       29.56F
ROCKFORD       TSTM      37  34  89 NE22      29.65F FOG     WCI  26
PEORIA         CLOUDY    45  43  93 E15       29.52F
$$

NOTE: "FAIR" INDICATES FEW OR NO CLOUDS BELOW 12,000 FEET WITH NO
SIGNIFICANT WEATHER AND/OR OBSTRUCTIONS TO VISIBILITY. WIND
SPEEDS ARE IN MILES-PER-HOUR.




USA.gov is the U.S. government's official web portal to all federal, state and local government web resources and services.